CAPE
0 0 0 0 0 0 0 0 0 0 0 0 0 0 0 0 0 0 0 0 0 0 0 0 0 5 8 4 17 17 3 3 0 0 1 0 0 0 1 1 1 3 0
0 0 0 0 0 0 0 0 0 0 0 0 0 0 0 0 0 0 0 0 0 0 0 0 0 1 1 4 8 0 1 2 0 0 0 0 0 0 0 0 0 0 0
0 0 0 0 0 0 0 0 0 0 0 0 0 0 0 0 0 0 0 0 0 0 0 0 0 8 4 3 1 5 15 0 0 0 1 0 0 0 0 0 1 0 0
0 0 0 0 0 0 0 0 0 0 0 0 0 0 0 0 0 0 0 0 0 0 0 0 0 0 0 0 0 11 0 0 9 1 0 1 5 3 2 0 0 0 0
0 0 0 0 0 0 0 0 0 0 0 0 0 0 0 0 0 0 0 0 0 0 0 0 0 0 0 0 0 0 3 3 1 2 5 2 4 2 1 1 1 0 0
0 0 0 0 0 0 0 0 0 0 0 0 0 0 0 0 0 0 0 0 0 0 0 0 0 0 0 0 0 2 6 5 1 2 3 2 2 1 1 2 2 2 1
0 0 0 0 0 0 0 0 0 0 0 0 0 0 0 0 0 0 0 0 0 0 0 0 0 0 0 0 3 9 3 1 2 1 1 1 1 1 1 1 1 1 1
0 0 0 0 0 0 0 0 0 0 0 0 0 0 0 0 0 0 0 0 0 0 0 0 0 0 0 0 0 0 0 1 0 0 0 0 1 1 2 1 1 2 3
0 0 0 0 0 0 0 0 0 0 0 0 0 0 0 0 0 0 0 0 0 0 0 0 0 0 0 0 0 0 0 0 0 0 0 0 0 1 2 2 2 2 2
0 0 0 0 0 0 0 0 0 0 0 0 0 0 0 0 0 0 0 0 0 0 0 0 0 0 0 0 0 0 0 0 0 0 0 0 0 0 1 1 1 2 2
0 0 0 0 0 0 0 0 0 0 0 0 0 0 0 0 0 0 0 0 0 0 0 0 0 0 0 0 0 0 0 0 0 0 0 0 0 0 0 1 2 2 3
0 0 0 0 0 0 0 0 0 0 0 0 0 0 0 0 0 0 0 0 0 0 0 0 0 0 0 0 0 0 0 0 0 0 0 0 0 0 0 0 1 2 2
0 0 0 0 0 0 0 0 0 0 0 0 0 0 0 0 0 0 0 0 0 0 0 0 0 0 0 0 0 0 0 0 0 0 0 0 0 0 0 0 0 0 0
0 0 0 0 0 0 0 0 0 0 0 0 0 0 0 0 0 0 0 0 0 0 0 0 0 0 0 0 0 0 0 0 0 0 0 0 0 0 0 0 0 0 0
0 0 0 0 0 0 0 0 0 0 0 0 0 0 0 0 0 0 0 0 0 0 0 0 0 0 0 0 0 0 0 0 0 0 0 0 0 0 0 0 0 0 0
0 0 0 0 0 0 0 0 0 0 0 0 0 0 0 0 0 0 0 0 0 0 0 0 0 0 0 0 0 0 0 0 0 0 0 0 0 0 0 0 0 0 0
0 0 0 0 0 0 0 0 0 0 0 0 0 0 0 0 0 0 0 0 0 0 0 0 0 0 0 0 0 0 0 0 0 0 0 0 0 0 0 0 0 0 0
0 0 0 0 0 0 0 0 0 0 0 0 0 0 0 0 0 0 0 0 0 0 0 0 0 0 0 0 0 0 0 0 0 0 0 0 0 0 0 0 0 0 0
0 0 0 0 0 0 0 0 0 0 0 0 0 0 0 0 0 0 0 0 0 0 0 0 0 0 0 0 0 0 0 0 0 0 0 0 0 0 0 0 0 0 0
0 0 0 0 0 0 0 0 0 0 0 0 0 0 0 0 0 0 0 0 0 0 0 0 0 0 0 0 0 0 0 0 0 0 0 0 0 0 0 0 0 0 0
0 0 0 0 0 0 0 0 0 0 0 0 0 0 0 0 0 0 0 0 0 0 0 0 0 0 0 0 0 0 0 0 0 0 0 0 0 0 0 0 0 0 0
0 0 0 0 0 0 0 0 0 0 0 0 0 0 0 0 0 0 0 0 0 0 0 0 0 0 0 0 0 0 0 0 0 0 0 0 0 0 0 0 0 0 0
0 0 0 0 0 0 0 0 0 0 0 0 0 0 0 0 0 0 0 0 0 0 0 0 0 0 0 0 0 0 0 0 0 0 0 0 0 0 0 0 0 0 0
0 0 0 0 0 0 0 0 0 0 0 0 0 0 0 0 0 0 0 0 0 0 0 0 0 0 0 0 0 0 0 0 0 0 0 0 0 0 0 0 0 0 0
0 0 0 0 0 0 0 0 0 0 0 0 0 0 0 0 0 0 0 0 0 0 0 0 0 0 0 0 0 0 0 0 0 0 0 0 0 0 0 0 0 0 0
0 0 0 0 0 0 0 0 0 0 0 0 0 0 0 0 0 0 0 0 0 0 0 0 0 0 0 0 0 0 0 0 0 0 0 0 0 0 0 0 0 0 0
CIN
-0 -0 -0 -0 -0 -0 -0 -0 -0 -0 -0 -0 -0 -0 -0 -0 -0 -0 -0 -0 -0 -0 -0 -0 -0 -0 -0 -0 -0 -3 -1 -0 -0 -0 -0 -0 -0 -0 -0 -0 -0 -0 -0
-0 -0 -0 -0 -0 -0 -0 -0 -0 -0 -0 -0 -0 -0 -0 -0 -0 -0 -0 -0 -0 -0 -0 -0 -0 -0 -0 -0 -0 -0 -0 -0 -0 -0 -0 -0 -0 -0 -0 -0 -0 -0 -0
-0 -0 -0 -0 -0 -0 -0 -0 -0 -0 -0 -0 -0 -0 -0 -0 -0 -0 -0 -0 -0 -0 -0 -0 -0 -0 -1 -0 -0 -0 -0 -1 -0 -0 -0 -0 -0 -0 -0 -0 -0 -0 -0
-0 -0 -0 -0 -0 -0 -0 -0 -0 -0 -0 -0 -0 -0 -0 -0 -0 -0 -0 -0 -0 -0 -0 -0 -0 -0 -0 -0 -0 -0 -2 -0 -0 -0 -0 -0 -0 -0 -0 -0 -0 -0 -0
-0 -0 -0 -0 -0 -0 -0 -0 -0 -0 -0 -0 -0 -0 -0 -0 -0 -0 -0 -0 -0 -0 -0 -0 -0 -0 -0 -0 -0 -0 -0 -0 -0 -0 -0 -0 -0 -0 -0 -0 -0 -0 -0
-0 -0 -0 -0 -0 -0 -0 -0 -0 -0 -0 -0 -0 -0 -0 -0 -0 -0 -0 -0 -0 -0 -0 -0 -0 -0 -0 -0 -0 -0 -0 -0 -0 -0 -0 -0 -0 -0 -0 -0 -0 -0 -0
-0 -0 -0 -0 -0 -0 -0 -0 -0 -0 -0 -0 -0 -0 -0 -0 -0 -0 -0 -0 -0 -0 -0 -0 -0 -0 -0 -0 -0 -0 -1 -0 -0 -0 -0 -0 -0 -0 -0 -0 -0 -0 -0
-0 -0 -0 -0 -0 -0 -0 -0 -0 -0 -0 -0 -0 -0 -0 -0 -0 -0 -0 -0 -0 -0 -0 -0 -0 -0 -0 -0 -0 -0 -0 -0 -0 -0 -0 -0 -0 -0 -0 -0 -0 -0 -0
-0 -0 -0 -0 -0 -0 -0 -0 -0 -0 -0 -0 -0 -0 -0 -0 -0 -0 -0 -0 -0 -0 -0 -0 -0 -0 -0 -0 -0 -0 -0 -0 -0 -0 -0 -0 -0 -0 -0 -0 -0 -0 -0
-0 -0 -0 -0 -0 -0 -0 -0 -0 -0 -0 -0 -0 -0 -0 -0 -0 -0 -0 -0 -0 -0 -0 -0 -0 -0 -0 -0 -0 -0 -0 -0 -0 -0 -0 -0 -0 -0 -0 -0 -0 -0 -0
-0 -0 -0 -0 -0 -0 -0 -0 -0 -0 -0 -0 -0 -0 -0 -0 -0 -0 -0 -0 -0 -0 -0 -0 -0 -0 -0 -0 -0 -0 -0 -0 -0 -0 -0 -0 -0 -0 -0 -0 -0 -0 -0
-0 -0 -0 -0 -0 -0 -0 -0 -0 -0 -0 -0 -0 -0 -0 -0 -0 -0 -0 -0 -0 -0 -0 -0 -0 -0 -0 -0 -0 -0 -0 -0 -0 -0 -0 -0 -0 -0 -0 -0 -0 -0 -0
-0 -0 -0 -0 -0 -0 -0 -0 -0 -0 -0 -0 -0 -0 -0 -0 -0 -0 -0 -0 -0 -0 -0 -0 -0 -0 -0 -0 -0 -0 -0 -0 -0 -0 -0 -0 -0 -0 -0 -0 -0 -0 -0
-0 -0 -0 -0 -0 -0 -0 -0 -0 -0 -0 -0 -0 -0 -0 -0 -0 -0 -0 -0 -0 -0 -0 -0 -0 -0 -0 -0 -0 -0 -0 -0 -0 -0 -0 -0 -0 -0 -0 -0 -0 -0 -0
-0 -0 -0 -0 -0 -0 -0 -0 -0 -0 -0 -0 -0 -0 -0 -0 -0 -0 -0 -0 -0 -0 -0 -0 -0 -0 -0 -0 -0 -0 -0 -0 -0 -0 -0 -0 -0 -0 -0 -0 -0 -0 -0
-0 -0 -0 -0 -0 -0 -0 -0 -0 -0 -0 -0 -0 -0 -0 -0 -0 -0 -0 -0 -0 -0 -0 -0 -0 -0 -0 -0 -0 -0 -0 -0 -0 -0 -0 -0 -0 -0 -0 -0 -0 -0 -0
-0 -0 -0 -0 -0 -0 -0 -0 -0 -0 -0 -0 -0 -0 -0 -0 -0 -0 -0 -0 -0 -0 -0 -0 -0 -0 -0 -0 -0 -0 -0 -0 -0 -0 -0 -0 -0 -0 -0 -0 -0 -0 -0
-0 -0 -0 -0 -0 -0 -0 -0 -0 -0 -0 -0 -0 -0 -0 -0 -0 -0 -0 -0 -0 -0 -0 -0 -0 -0 -0 -0 -0 -0 -0 -0 -0 -0 -0 -0 -0 -0 -0 -0 -0 -0 -0
-0 -0 -0 -0 -0 -0 -0 -0 -0 -0 -0 -0 -0 -0 -0 -0 -0 -0 -0 -0 -0 -0 -0 -0 -0 -0 -0 -0 -0 -0 -0 -0 -0 -0 -0 -0 -0 -0 -0 -0 -0 -0 -0
-0 -0 -0 -0 -0 -0 -0 -0 -0 -0 -0 -0 -0 -0 -0 -0 -0 -0 -0 -0 -0 -0 -0 -0 -0 -0 -0 -0 -0 -0 -0 -0 -0 -0 -0 -0 -0 -0 -0 -0 -0 -0 -0
-0 -0 -0 -0 -0 -0 -0 -0 -0 -0 -0 -0 -0 -0 -0 -0 -0 -0 -0 -0 -0 -0 -0 -0 -0 -0 -0 -0 -0 -0 -0 -0 -0 -0 -0 -0 -0 -0 -0 -0 -0 -0 -0
-0 -0 -0 -0 -0 -0 -0 -0 -0 -0 -0 -0 -0 -0 -0 -0 -0 -0 -0 -0 -0 -0 -0 -0 -0 -0 -0 -0 -0 -0 -0 -0 -0 -0 -0 -0 -0 -0 -0 -0 -0 -0 -0
-0 -0 -0 -0 -0 -0 -0 -0 -0 -0 -0 -0 -0 -0 -0 -0 -0 -0 -0 -0 -0 -0 -0 -0 -0 -0 -0 -0 -0 -0 -0 -0 -0 -0 -0 -0 -0 -0 -0 -0 -0 -0 -0
-0 -0 -0 -0 -0 -0 -0 -0 -0 -0 -0 -0 -0 -0 -0 -0 -0 -0 -0 -0 -0 -0 -0 -0 -0 -0 -0 -0 -0 -0 -0 -0 -0 -0 -0 -0 -0 -0 -0 -0 -0 -0 -0
-0 -0 -0 -0 -0 -0 -0 -0 -0 -0 -0 -0 -0 -0 -0 -0 -0 -0 -0 -0 -0 -0 -0 -0 -0 -0 -0 -0 -0 -0 -0 -0 -0 -0 -0 -0 -0 -0 -0 -0 -0 -0 -0
-0 -0 -0 -0 -0 -0 -0 -0 -0 -0 -0 -0 -0 -0 -0 -0 -0 -0 -0 -0 -0 -0 -0 -0 -0 -0 -0 -0 -0 -0 -0 -0 -0 -0 -0 -0 -0 -0 -0 -0 -0 -0 -0
Wind_Speed
11 10 10 9 9 8 9 10 11 13 14 15 17 18 19 20 21 21 20 21 21 20 18 18 17 16 16 16 15 14 15 15 16 17 16 18 17 18 17 17 17 18 19
13 13 12 12 11 11 11 11 11 12 12 14 16 17 18 19 20 20 19 19 20 20 18 18 17 16 15 15 15 16 15 15 18 18 17 18 18 17 17 17 18 19 20
15 14 15 14 14 13 13 13 12 13 14 14 15 16 17 18 19 18 18 17 17 17 18 18 18 16 14 16 15 16 13 17 17 16 17 18 18 17 18 17 18 20 21
15 15 15 16 15 15 15 15 15 15 14 14 14 16 17 18 18 18 18 17 17 17 17 18 17 15 16 17 17 16 17 17 17 18 18 17 17 18 18 19 20 20 21
18 18 17 17 16 16 16 16 16 16 16 16 16 17 17 18 18 18 17 18 18 17 16 16 16 17 18 18 17 16 16 17 17 17 18 18 18 19 19 20 21 21 22
21 21 21 19 18 19 19 18 18 18 17 17 17 18 19 19 19 19 18 18 18 17 16 15 16 17 17 16 15 14 14 15 17 18 18 19 19 20 20 21 22 23 24
23 23 23 21 20 22 21 21 21 20 20 17 19 21 21 21 20 20 19 19 18 17 17 16 16 16 16 15 15 13 14 15 17 17 18 19 20 20 21 22 23 24 24
25 25 25 24 24 25 25 23 22 22 24 18 24 22 26 25 22 21 19 19 17 17 16 16 16 16 15 16 15 15 15 17 17 18 19 19 20 20 21 22 23 24 25
27 27 27 27 27 26 26 26 25 25 26 24 23 25 28 30 23 22 21 20 17 17 17 16 16 15 15 14 15 16 18 18 18 19 20 20 20 21 22 23 24 24 25
25 26 27 29 29 28 28 28 27 28 27 28 27 29 27 25 27 27 23 21 20 19 18 17 16 15 14 14 14 16 17 17 18 19 20 20 20 21 22 23 24 24 25
26 27 26 28 29 30 30 29 29 29 30 30 29 29 30 29 27 26 27 24 24 22 19 17 16 16 15 14 14 16 17 18 18 19 19 20 21 22 22 23 24 25 25
25 28 30 29 30 31 31 31 30 31 32 32 32 32 30 30 30 28 28 24 24 22 20 19 17 16 15 15 15 15 17 18 18 19 19 20 21 22 22 23 24 25 25
29 29 30 31 33 33 33 33 34 34 33 34 33 34 34 34 31 29 28 25 26 23 23 21 19 18 16 15 15 16 17 18 19 20 20 21 22 22 22 23 24 25 25
32 32 32 34 34 34 35 36 36 36 36 36 35 35 35 35 33 31 29 27 28 27 24 23 20 19 17 17 17 16 18 19 19 20 21 22 22 23 23 23 23 23 23
35 34 34 34 35 35 35 36 39 39 37 37 38 38 38 37 36 34 33 29 30 31 28 24 23 19 19 18 17 18 19 19 21 22 22 23 24 23 23 23 22 22 23
35 36 35 35 35 36 36 35 37 38 40 41 40 39 39 39 38 36 35 34 33 31 32 26 24 20 18 19 18 19 20 20 22 22 23 24 24 24 24 23 23 23 23
39 37 37 36 36 37 37 37 38 38 41 42 41 40 41 40 40 39 37 36 34 32 33 29 22 19 18 19 20 21 22 22 22 21 22 23 23 23 23 23 23 23 23
40 40 39 38 37 37 37 38 39 40 41 42 42 42 43 42 43 41 39 39 37 34 33 31 25 22 21 19 20 22 24 24 24 23 23 23 22 22 22 23 23 23 23
43 42 42 42 40 38 39 39 38 40 41 43 42 44 44 43 45 44 42 41 39 36 35 32 30 24 23 20 22 24 25 25 24 24 24 24 23 23 23 23 24 23 22
46 45 45 46 46 44 42 42 42 41 42 43 43 45 46 46 47 46 45 43 41 39 37 35 32 28 24 23 22 25 28 27 27 24 24 24 24 24 24 24 23 23 22
51 49 48 47 47 46 46 47 46 45 44 44 46 48 49 50 51 48 47 46 42 41 39 39 37 33 30 27 28 25 28 27 27 25 26 25 24 25 24 23 23 22 22
54 52 53 52 52 49 47 49 49 51 51 51 52 51 51 51 52 52 51 47 45 44 43 42 41 40 35 30 27 27 27 28 32 26 27 27 23 25 25 24 24 26 27
59 59 59 58 58 56 53 52 51 51 52 54 54 54 54 52 51 51 51 48 47 45 44 44 46 43 38 33 29 30 30 30 32 25 24 28 26 28 26 26 27 29 30
63 63 63 62 63 62 59 57 54 54 55 55 55 55 54 56 53 52 50 49 50 48 47 46 46 42 39 34 33 32 30 29 28 26 25 31 27 31 28 29 31 32 33
67 68 68 68 66 66 64 63 60 58 58 59 56 54 54 56 55 50 49 53 52 50 45 45 44 40 38 35 33 31 34 33 37 35 28 30 30 32 33 33 33 32 30
70 69 71 69 70 72 69 66 62 60 62 61 57 56 53 55 53 51 51 49 53 49 41 42 42 39 37 36 35 35 35 37 37 36 30 31 31 31 35 31 28 28 26
Wind_Direction
267 269 274 275 278 284 291 296 301 305 308 310 313 315 317 318 319 320 321 320 319 319 319 318 318 318 320 321 324 327 324 326 327 325 326 324 320 317 323 325 327 329 326
264 265 268 269 273 277 284 290 296 300 305 310 313 317 319 321 322 322 322 324 322 319 319 319 318 317 317 320 321 318 320 325 320 317 321 321 318 317 317 322 325 326 324
261 263 266 267 270 274 277 282 288 295 300 304 309 314 318 320 322 323 323 325 327 325 325 321 318 320 320 316 319 319 320 320 321 322 321 319 320 319 317 319 322 322 322
258 260 262 263 264 267 270 275 278 284 292 297 304 310 314 316 318 321 322 321 322 324 323 322 324 325 321 318 314 313 316 318 320 319 318 318 319 317 315 315 317 319 322
258 261 264 263 260 263 264 266 270 274 281 288 297 304 308 311 313 316 317 318 317 318 322 320 321 319 316 315 315 315 316 317 319 319 318 317 317 315 313 313 312 313 316
264 264 268 266 264 266 266 266 268 272 275 281 291 297 302 305 306 309 311 313 314 316 318 319 317 317 317 316 316 318 319 320 316 316 316 316 315 313 312 311 311 312 313
266 264 267 265 263 265 266 266 269 269 274 278 285 293 297 300 300 302 305 307 309 312 314 317 316 316 317 318 318 318 321 320 319 318 316 315 314 313 311 310 311 312 312
268 264 265 264 263 266 265 264 263 267 275 266 280 285 288 292 295 296 299 302 304 308 311 312 311 308 307 313 314 317 317 316 316 316 316 315 315 315 314 313 313 313 314
273 268 265 265 263 261 261 261 260 260 268 267 272 284 286 286 291 291 290 293 296 301 306 309 309 307 304 309 309 310 312 313 313 314 314 314 314 314 314 314 314 315 316
276 271 268 266 263 260 261 260 260 262 265 266 269 275 283 289 287 289 287 284 287 293 298 303 304 302 300 303 307 308 308 310 311 312 313 314 315 315 315 314 314 315 316
285 280 273 269 265 262 259 258 258 258 262 266 264 270 273 278 282 287 286 283 284 287 292 296 298 298 295 298 301 303 307 308 310 312 313 314 314 314 314 314 314 315 316
291 286 280 275 271 267 263 261 259 257 258 263 265 268 267 270 272 276 284 281 283 285 287 291 291 292 291 292 297 300 304 305 306 307 309 310 311 312 312 313 314 314 315
297 292 286 280 276 272 268 265 263 261 259 260 262 264 266 267 275 271 275 278 283 289 288 287 287 287 287 288 289 292 297 301 302 303 305 307 309 311 312 312 312 312 315
302 298 292 285 281 277 272 268 266 264 262 261 260 262 264 264 266 267 268 271 279 285 285 290 281 282 283 283 286 287 293 296 298 300 302 304 305 306 308 309 312 315 317
305 301 297 291 285 281 276 272 268 266 264 262 262 261 261 263 262 262 265 264 272 277 278 280 287 277 278 280 281 286 290 292 295 296 299 302 303 304 306 308 310 312 314
308 304 300 295 290 286 280 276 273 270 267 265 264 262 261 261 260 259 261 264 268 274 279 282 279 280 273 278 277 281 286 289 292 294 296 299 301 302 303 305 306 308 311
313 308 304 300 295 290 285 279 276 274 270 267 265 262 260 258 258 257 258 261 263 268 274 282 277 278 273 274 276 276 282 285 288 289 292 296 298 300 300 302 303 306 309
312 310 307 301 299 296 291 284 280 277 273 270 266 264 261 258 256 256 255 257 260 262 268 271 276 278 277 271 274 275 279 283 285 288 289 293 293 296 298 299 301 303 306
309 307 306 302 299 299 294 290 285 280 276 273 270 265 261 258 256 255 254 255 257 260 264 270 274 276 280 271 273 276 278 280 283 285 288 290 291 293 295 297 299 301 302
308 307 305 302 300 296 294 292 288 285 280 275 271 267 263 259 256 255 254 253 254 256 259 264 270 271 272 273 271 272 275 277 280 282 285 289 289 291 293 295 296 296 295
305 305 304 304 304 298 293 290 288 285 282 279 273 268 265 262 259 256 253 254 254 253 255 257 265 268 268 270 265 271 273 276 277 279 282 285 286 289 292 292 293 293 292
303 302 301 300 299 298 297 291 287 283 281 278 274 271 267 264 261 259 256 253 251 249 251 254 258 261 262 262 262 266 268 273 276 275 279 282 283 287 290 289 290 289 289
300 298 296 295 292 292 292 292 290 285 281 278 275 272 269 266 264 261 259 258 253 247 246 249 253 257 259 255 259 263 263 266 275 278 277 283 281 283 286 286 287 288 287
296 295 294 292 289 287 288 288 288 285 281 278 275 272 270 268 266 263 261 259 257 255 251 251 252 256 259 256 255 259 260 265 275 276 277 282 285 284 284 285 286 286 285
294 293 291 290 288 285 284 283 283 282 279 276 275 273 270 269 266 263 260 259 259 258 256 252 255 254 254 253 253 257 258 260 268 272 272 281 285 284 284 283 286 286 284
293 292 289 287 286 284 283 281 280 279 276 275 275 273 271 268 267 263 259 259 258 257 256 253 254 254 253 250 248 252 254 256 266 269 272 276 281 283 283 284 285 285 285